Weather History for Hastings, NE

Change the Weather History Date:

Thursday, January 19, 2012

  Actual Average Record
Temperature  
Mean Temperature 10 °F 26 °F  
Max Temperature 17 °F 36 °F 67 °F (2014)
Min Temperature 2 °F 16 °F -17 °F (1943)
Degree Days  
Heating Degree Days 55 39  
Month to date heating degree days 640 745  
Since 1 July heating degree days 2978 3185  
Cooling Degree Days 0 0  
Month to date cooling degree days 0 0  
Year to date cooling degree days 0 0  
Moisture  
Dew Point -4 °F    
Average Humidity 56    
Maximum Humidity 69    
Minimum Humidity 42    
Precipitation  
Precipitation 0.00 in 0.01 in 0.69 in (1988)
Month to date precipitation 0.02 0.19  
Year to date precipitation 0.02 0.19  
Snow  
Snow 0.00 in 0.20 in 6.20 in (2011)
Month to date snowfall 0.5 3.4  
Since 1 July snowfall 9.9 13.3  
Snow Depth 0.00 in    
Sea Level Pressure  
Sea Level Pressure 30.07 in    
Wind  
Wind Speed 12 mph (ENE)    
Max Wind Speed 20 mph    
Max Gust Speed 25 mph    
Visibility 10 miles    
Events      
T = Trace of Precipitation, MM = Missing Value Source: NWS Daily Summary

Daily Weather History Graph

Daily Weather History Graph

Search for Another Location

Airport:

Trip Planner

Search our weather history database for the weather conditions in past years. The results will help you decide how hot, cold, wet, or windy it might be!

Date:

Astronomy

Jan. 19, 2012 Rise Set
Actual Time 7:53 AM CST 5:35 PM CST
Civil Twilight 7:23 AM CST 6:05 PM CST
Nautical Twilight 6:50 AM CST 6:38 PM CST
Astronomical Twilight 6:17 AM CST 7:11 PM CST
Moon 4:31 AM CST (1/19) 2:08 PM CST (1/19)
Length of Visible Light 10h 41m
Length of Day
9h 41m
Waning Crescent, 15% of the Moon is Illuminated
Jan 19
Waning Crescent
Jan 23
New
Jan 30
First Quarter
Feb 7
Full
Feb 14
Last Quarter

Hourly Weather History & Observations

Time (CST) Temp. Windchill Dew Point Humidity Pressure Visibility Wind Dir Wind Speed Gust Speed Precip Events Conditions
12:53 AM 12.0 °F -5.6 °F -0.9 °F 56% 29.96 in 10.0 mi NNE 18.4 mph 25.3 mph N/A   Overcast
1:53 AM 9.0 °F -7.9 °F -0.9 °F 64% 29.96 in 10.0 mi NNE 15.0 mph - N/A   Clear
2:53 AM 8.1 °F -9.6 °F -2.0 °F 64% 29.99 in 10.0 mi NNE 16.1 mph - N/A   Clear
3:53 AM 7.0 °F -10.4 °F -4.0 °F 61% 30.00 in 10.0 mi NNE 15.0 mph - N/A   Clear
4:53 AM 6.1 °F -11.6 °F -5.1 °F 60% 30.02 in 10.0 mi NNE 15.0 mph - N/A   Clear
5:53 AM 5.0 °F -13.6 °F -5.1 °F 63% 30.06 in 10.0 mi NNE 16.1 mph - N/A   Clear
6:53 AM 3.9 °F -14.3 °F -6.0 °F 64% 30.09 in 10.0 mi NNE 15.0 mph - N/A   Clear
7:53 AM 1.9 °F -16.9 °F -7.1 °F 66% 30.14 in 10.0 mi NNE 15.0 mph 18.4 mph N/A   Clear
8:53 AM 3.9 °F -14.3 °F -7.1 °F 60% 30.15 in 10.0 mi NNE 15.0 mph - N/A   Clear
9:53 AM 5.0 °F -13.0 °F -7.1 °F 58% 30.18 in 10.0 mi NNE 15.0 mph - N/A   Clear
10:53 AM 8.1 °F -7.7 °F -7.1 °F 50% 30.20 in 10.0 mi NNE 12.7 mph - N/A   Clear
11:53 AM 10.4 °F -3.3 °F -7.6 °F 44% 30.06 in 10.0 mi NE 10.4 mph - N/A   Clear
12:53 PM 12.9 °F 0.7 °F -6.0 °F 43% 30.15 in 10.0 mi East 9.2 mph - N/A   Clear
1:53 PM 14.0 °F 2.9 °F -5.1 °F 43% 30.13 in 10.0 mi East 8.1 mph - N/A   Clear
2:53 PM 16.0 °F 2.9 °F -4.0 °F 41% 30.09 in 10.0 mi ENE 11.5 mph - N/A   Clear
3:53 PM 16.0 °F 5.3 °F -4.0 °F 41% 30.08 in 10.0 mi East 8.1 mph - N/A   Clear
4:53 PM 15.1 °F 4.2 °F -2.9 °F 45% 30.09 in 10.0 mi ESE 8.1 mph - N/A   Clear
5:53 PM 14.0 °F 2.9 °F -2.9 °F 47% 30.09 in 10.0 mi ESE 8.1 mph - N/A   Clear
6:53 PM 14.0 °F 2.9 °F -2.0 °F 49% 30.11 in 10.0 mi ESE 8.1 mph - N/A   Overcast
7:53 PM 12.2 °F -1.8 °F -0.4 °F 57% 29.95 in 10.0 mi ESE 11.5 mph - N/A   Overcast
8:53 PM 12.0 °F -1.3 °F -0.0 °F 59% 30.10 in 10.0 mi SSE 10.4 mph - N/A   Overcast
9:53 PM 10.9 °F -4.1 °F -0.9 °F 59% 30.07 in 10.0 mi SSE 12.7 mph - N/A   Partly Cloudy
10:53 PM 10.0 °F -3.7 °F -0.0 °F 64% 30.03 in 10.0 mi SE 10.4 mph - N/A   Partly Cloudy
11:53 PM 10.0 °F -0.9 °F -0.0 °F 64% 30.02 in 10.0 mi SE 6.9 mph - N/A   Clear